Time,TemperatureF,DewpointF,PressureIn,WindDirection,WindDirectionDegrees,WindSpeedMPH,WindSpeedGustMPH,Humidity,HourlyPrecipIn,Conditions,Clouds,dailyrainin,SoftwareType,DateUTC
2013-02-02 00:00:00,33.0,-99.9,-100.00,North,-999,-999.0,-999.0,-999,0.04,,,1.09,,2013-02-02 09:00:00,
2013-02-02 00:42:00,33.0,-99.9,-100.00,North,-999,-999.0,-999.0,-999,0.04,,,1.09,,2013-02-02 09:42:00,
2013-02-02 00:52:00,33.0,-99.9,-100.00,North,-999,-999.0,-999.0,-999,0.04,,,1.09,,2013-02-02 09:52:00,
2013-02-02 01:00:00,33.0,-99.9,-100.00,North,-999,-999.0,-999.0,-999,0.04,,,1.07,,2013-02-02 10:00:00,
2013-02-02 01:42:00,33.0,-99.9,-100.00,North,-999,-999.0,-999.0,-999,0.04,,,1.07,,2013-02-02 10:42:00,
2013-02-02 01:52:00,33.0,-99.9,-100.00,North,-999,-999.0,-999.0,-999,0.04,,,1.07,,2013-02-02 10:52:00,
2013-02-02 02:00:00,32.0,-99.9,-100.00,North,-999,-999.0,-999.0,-999,0.04,,,1.06,,2013-02-02 11:00:00,
2013-02-02 02:42:00,32.0,-99.9,-100.00,North,-999,-999.0,-999.0,-999,0.04,,,1.06,,2013-02-02 11:42:00,
2013-02-02 02:52:00,32.0,-99.9,-100.00,North,-999,-999.0,-999.0,-999,0.04,,,1.06,,2013-02-02 11:52:00,
2013-02-02 03:00:00,32.0,-99.9,-100.00,North,-999,-999.0,-999.0,-999,0.04,,,1.06,,2013-02-02 12:00:00,
2013-02-02 03:42:00,32.0,-99.9,-100.00,North,-999,-999.0,-999.0,-999,0.04,,,1.06,,2013-02-02 12:42:00,
2013-02-02 03:53:00,32.0,-99.9,-100.00,North,-999,-999.0,-999.0,-999,0.04,,,1.06,,2013-02-02 12:53:00,
2013-02-02 04:00:00,31.0,-99.9,-100.00,North,-999,-999.0,-999.0,-999,0.04,,,1.06,,2013-02-02 13:00:00,
2013-02-02 04:43:00,31.0,-99.9,-100.00,North,-999,-999.0,-999.0,-999,0.04,,,1.06,,2013-02-02 13:43:00,
2013-02-02 04:52:00,31.0,-99.9,-100.00,North,-999,-999.0,-999.0,-999,0.04,,,1.06,,2013-02-02 13:52:00,
2013-02-02 05:00:00,31.0,-99.9,-100.00,North,-999,-999.0,-999.0,-999,0.04,,,-99.99,,2013-02-02 14:00:00,
2013-02-02 05:42:00,31.0,-99.9,-100.00,North,-999,-999.0,-999.0,-999,0.04,,,-99.99,,2013-02-02 14:42:00,
2013-02-02 05:52:00,31.0,-99.9,-100.00,North,-999,-999.0,-999.0,-999,0.04,,,-99.99,,2013-02-02 14:52:00,
2013-02-02 06:00:00,32.0,-99.9,-100.00,North,-999,-999.0,-999.0,-999,0.04,,,1.06,,2013-02-02 15:00:00,
2013-02-02 06:42:00,32.0,-99.9,-100.00,North,-999,-999.0,-999.0,-999,0.04,,,1.06,,2013-02-02 15:42:00,
2013-02-02 06:52:00,32.0,-99.9,-100.00,North,-999,-999.0,-999.0,-999,0.04,,,1.06,,2013-02-02 15:52:00,
2013-02-02 07:00:00,32.0,-99.9,-100.00,North,-999,-999.0,-999.0,-999,0.05,,,-99.99,,2013-02-02 16:00:00,
2013-02-02 07:43:00,32.0,-99.9,-100.00,North,-999,-999.0,-999.0,-999,0.05,,,-99.99,,2013-02-02 16:43:00,
2013-02-02 07:52:00,32.0,-99.9,-100.00,North,-999,-999.0,-999.0,-999,0.05,,,-99.99,,2013-02-02 16:52:00,
2013-02-02 08:00:00,33.0,-99.9,-100.00,North,-999,-999.0,-999.0,-999,0.04,,,1.07,,2013-02-02 17:00:00,
2013-02-02 08:42:00,33.0,-99.9,-100.00,North,-999,-999.0,-999.0,-999,0.04,,,1.07,,2013-02-02 17:42:00,
2013-02-02 08:53:00,33.0,-99.9,-100.00,North,-999,-999.0,-999.0,-999,0.04,,,1.07,,2013-02-02 17:53:00,
2013-02-02 09:00:00,34.0,-99.9,-100.00,North,-999,-999.0,-999.0,-999,0.04,,,1.00,,2013-02-02 18:00:00,
2013-02-02 09:42:00,34.0,-99.9,-100.00,North,-999,-999.0,-999.0,-999,0.04,,,1.00,,2013-02-02 18:42:00,
2013-02-02 09:52:00,34.0,-99.9,-100.00,North,-999,-999.0,-999.0,-999,0.04,,,1.00,,2013-02-02 18:52:00,
2013-02-02 10:00:00,33.0,-99.9,-100.00,North,-999,-999.0,-999.0,-999,0.04,,,0.94,,2013-02-02 19:00:00,
2013-02-02 10:42:00,33.0,-99.9,-100.00,North,-999,-999.0,-999.0,-999,0.04,,,0.94,,2013-02-02 19:42:00,
2013-02-02 10:52:00,33.0,-99.9,-100.00,North,-999,-999.0,-999.0,-999,0.04,,,0.94,,2013-02-02 19:52:00,
2013-02-02 11:00:00,32.0,-99.9,-100.00,North,-999,-999.0,-999.0,-999,0.04,,,0.98,,2013-02-02 20:00:00,
2013-02-02 11:42:00,32.0,-99.9,-100.00,North,-999,-999.0,-999.0,-999,0.04,,,0.98,,2013-02-02 20:42:00,
2013-02-02 11:52:00,32.0,-99.9,-100.00,North,-999,-999.0,-999.0,-999,0.04,,,0.98,,2013-02-02 20:52:00,
2013-02-02 12:00:00,33.0,-99.9,-100.00,North,-999,-999.0,-999.0,-999,0.04,,,0.97,,2013-02-02 21:00:00,
2013-02-02 12:43:00,33.0,-99.9,-100.00,North,-999,-999.0,-999.0,-999,0.04,,,0.97,,2013-02-02 21:43:00,
2013-02-02 12:52:00,33.0,-99.9,-100.00,North,-999,-999.0,-999.0,-999,0.04,,,0.97,,2013-02-02 21:52:00,
2013-02-02 13:00:00,33.0,-99.9,-100.00,North,-999,-999.0,-999.0,-999,0.04,,,0.97,,2013-02-02 22:00:00,
2013-02-02 13:42:00,33.0,-99.9,-100.00,North,-999,-999.0,-999.0,-999,0.04,,,0.97,,2013-02-02 22:42:00,
2013-02-02 13:52:00,33.0,-99.9,-100.00,North,-999,-999.0,-999.0,-999,0.04,,,0.97,,2013-02-02 22:52:00,
2013-02-02 14:00:00,35.0,-99.9,-100.00,North,-999,-999.0,-999.0,-999,0.04,,,0.97,,2013-02-02 23:00:00,
2013-02-02 14:42:00,35.0,-99.9,-100.00,North,-999,-999.0,-999.0,-999,0.04,,,0.97,,2013-02-02 23:42:00,
2013-02-02 14:52:00,35.0,-99.9,-100.00,North,-999,-999.0,-999.0,-999,0.04,,,0.97,,2013-02-02 23:52:00,
2013-02-02 15:00:00,33.0,-99.9,-100.00,North,-999,-999.0,-999.0,-999,0.04,,,0.97,,2013-02-03 00:00:00,
2013-02-02 15:42:00,33.0,-99.9,-100.00,North,-999,-999.0,-999.0,-999,0.04,,,0.97,,2013-02-03 00:42:00,
2013-02-02 15:52:00,33.0,-99.9,-100.00,North,-999,-999.0,-999.0,-999,0.04,,,0.97,,2013-02-03 00:52:00,
2013-02-02 16:00:00,33.0,-99.9,-100.00,North,-999,-999.0,-999.0,-999,0.06,,,0.99,,2013-02-03 01:00:00,
2013-02-02 16:42:00,33.0,-99.9,-100.00,North,-999,-999.0,-999.0,-999,0.06,,,0.99,,2013-02-03 01:42:00,
2013-02-02 16:52:00,33.0,-99.9,-100.00,North,-999,-999.0,-999.0,-999,0.06,,,0.99,,2013-02-03 01:52:00,
2013-02-02 17:00:00,32.0,-99.9,-100.00,North,-999,-999.0,-999.0,-999,0.05,,,1.00,,2013-02-03 02:00:00,
2013-02-02 17:42:00,32.0,-99.9,-100.00,North,-999,-999.0,-999.0,-999,0.05,,,1.00,,2013-02-03 02:42:00,
2013-02-02 17:53:00,32.0,-99.9,-100.00,North,-999,-999.0,-999.0,-999,0.05,,,1.00,,2013-02-03 02:53:00,
2013-02-02 18:00:00,32.0,-99.9,-100.00,North,-999,-999.0,-999.0,-999,0.07,,,1.03,,2013-02-03 03:00:00,
2013-02-02 18:42:00,32.0,-99.9,-100.00,North,-999,-999.0,-999.0,-999,0.07,,,1.03,,2013-02-03 03:42:00,
2013-02-02 18:52:00,32.0,-99.9,-100.00,North,-999,-999.0,-999.0,-999,0.07,,,1.03,,2013-02-03 03:52:00,
2013-02-02 19:00:00,32.0,-99.9,-100.00,North,-999,-999.0,-999.0,-999,0.04,,,1.03,,2013-02-03 04:00:00,
2013-02-02 19:42:00,32.0,-99.9,-100.00,North,-999,-999.0,-999.0,-999,0.04,,,1.03,,2013-02-03 04:42:00,
2013-02-02 19:52:00,32.0,-99.9,-100.00,North,-999,-999.0,-999.0,-999,0.04,,,1.03,,2013-02-03 04:52:00,
2013-02-02 20:00:00,32.0,-99.9,-100.00,North,-999,-999.0,-999.0,-999,0.04,,,-99.99,,2013-02-03 05:00:00,
2013-02-02 20:42:00,32.0,-99.9,-100.00,North,-999,-999.0,-999.0,-999,0.04,,,-99.99,,2013-02-03 05:42:00,
2013-02-02 20:53:00,32.0,-99.9,-100.00,North,-999,-999.0,-999.0,-999,0.04,,,-99.99,,2013-02-03 05:53:00,
2013-02-02 21:00:00,33.0,-99.9,-100.00,North,-999,-999.0,-999.0,-999,0.05,,,1.04,,2013-02-03 06:00:00,
2013-02-02 21:42:00,33.0,-99.9,-100.00,North,-999,-999.0,-999.0,-999,0.05,,,1.04,,2013-02-03 06:42:00,
2013-02-02 21:52:00,33.0,-99.9,-100.00,North,-999,-999.0,-999.0,-999,0.05,,,1.04,,2013-02-03 06:52:00,
2013-02-02 22:00:00,33.0,-99.9,-100.00,North,-999,-999.0,-999.0,-999,0.04,,,1.04,,2013-02-03 07:00:00,
2013-02-02 22:42:00,33.0,-99.9,-100.00,North,-999,-999.0,-999.0,-999,0.04,,,1.04,,2013-02-03 07:42:00,
2013-02-02 22:53:00,33.0,-99.9,-100.00,North,-999,-999.0,-999.0,-999,0.04,,,1.04,,2013-02-03 07:53:00,
2013-02-02 23:00:00,34.0,-99.9,-100.00,North,-999,-999.0,-999.0,-999,0.04,,,-99.99,,2013-02-03 08:00:00,
2013-02-02 23:42:00,34.0,-99.9,-100.00,North,-999,-999.0,-999.0,-999,0.04,,,-99.99,,2013-02-03 08:42:00,
2013-02-02 23:52:00,34.0,-99.9,-100.00,North,-999,-999.0,-999.0,-999,0.04,,,-99.99,,2013-02-03 08:52:00,